User: anonymous   Login
Location: Newark
(47.4333°N, 19.2500°E)
Time: 08:54:03
(UTC+00:00)
Language:

DX 1 - Orbit

View from above orbital plane
View from above orbital plane
View from above satellite
View from above satellite

Ground track
Ground track

The orbit data is extracted from the following two-line orbital elements,

1 40071U 14037C   21128.87283595  .00000105  00000-0  20883-4 0  9999
2 40071  98.4562 331.3461 0008628 166.5892 193.5554 14.81487379369439
Epoch (UTC): 08 May 2021 20:56:53
Eccentricity: 0.0008628
inclination: 98.4562°
perigee height: 618 km
apogee height: 630 km
right ascension of ascending node: 331.3461°
argument of perigee: 166.5892°
revolutions per day: 14.81487379
mean anomaly at epoch: 193.5554°
orbit number at epoch: 36943

The dashed part of the orbit path shows where the satellite is in the earth's shadow,  

DLR